• En España
  • Lista de países
  • Para 7 días
  • Temperatura del agua
  • Mapa Satelital
  • El tiempo en el mapa
  • Informadores
  • user-avatar
    Iniciar sesión

    Tiempo cada hora Chepchugi

    Hoy, 18 Agosto, Sábado

    Tiempo Temperatura Precipitaciones Viento Presión Humedad
    00:00 +12°C° 0 mm 2 mps 759 mmHg 86%
    01:00 +10°C° 0 mm 2 mps 759 mmHg 87%
    02:00 +10°C° 0 mm 2 mps 759 mmHg 88%
    03:00 +9°C° 0 mm 2 mps 759 mmHg 90%
    04:00 +10°C° 0 mm 2 mps 759 mmHg 88%
    05:00 +10°C° 0 mm 2 mps 760 mmHg 86%
    06:00 +11°C° 0 mm 3 mps 760 mmHg 84%
    07:00 +12°C° 0 mm 3 mps 760 mmHg 77%
    08:00 +14°C° 0 mm 4 mps 760 mmHg 70%
    09:00 +17°C° 0 mm 4 mps 760 mmHg 63%
    10:00 +17°C° 0 mm 4 mps 760 mmHg 61%
    11:00 +18°C° 0 mm 4 mps 760 mmHg 59%
    12:00 +19°C° 0 mm 4 mps 760 mmHg 57%
    13:00 +19°C° 0 mm 4 mps 759 mmHg 57%
    14:00 +19°C° 0 mm 4 mps 759 mmHg 57%
    15:00 +20°C° 0 mm 4 mps 759 mmHg 57%
    16:00 +19°C° 0 mm 4 mps 759 mmHg 61%
    17:00 +18°C° 0 mm 3 mps 759 mmHg 66%
    18:00 +17°C° 0 mm 3 mps 759 mmHg 71%
    19:00 +16°C° 0 mm 2 mps 759 mmHg 75%
    20:00 +14°C° 0 mm 2 mps 759 mmHg 78%
    21:00 +13°C° 0 mm 2 mps 760 mmHg 81%
    22:00 +12°C° 0 mm 2 mps 760 mmHg 82%
    23:00 +12°C° 0 mm 1 mps 760 mmHg 83%

    Mañana, 19 Agosto, Domingo

    Tiempo Temperatura Precipitaciones Viento Presión Humedad
    00:00 +11°C° 0 mm 1 mps 760 mmHg 84%
    01:00 +11°C° 0 mm 1 mps 760 mmHg 84%
    02:00 +10°C° 0 mm 1 mps 760 mmHg 85%
    03:00 +10°C° 0 mm 1 mps 760 mmHg 85%
    04:00 +11°C° 0 mm 1 mps 760 mmHg 84%
    05:00 +11°C° 0 mm 1 mps 760 mmHg 83%
    06:00 +12°C° 0 mm 1 mps 760 mmHg 81%
    07:00 +14°C° 0 mm 1 mps 760 mmHg 74%
    08:00 +15°C° 0 mm 2 mps 760 mmHg 68%
    09:00 +17°C° 0 mm 2 mps 760 mmHg 61%
    10:00 +18°C° 0 mm 2 mps 760 mmHg 58%
    11:00 +19°C° 0 mm 2 mps 760 mmHg 54%
    12:00 +20°C° 0 mm 2 mps 760 mmHg 50%
    13:00 +21°C° 0 mm 1 mps 759 mmHg 49%
    14:00 +22°C° 0 mm 1 mps 759 mmHg 48%
    15:00 +22°C° 0 mm 1 mps 758 mmHg 47%
    16:00 +21°C° 0 mm 1 mps 758 mmHg 52%
    17:00 +20°C° 0 mm 1 mps 758 mmHg 57%
    18:00 +19°C° 0 mm 1 mps 758 mmHg 62%
    19:00 +18°C° 0 mm 1 mps 758 mmHg 65%
    20:00 +16°C° 0 mm 1 mps 758 mmHg 68%
    21:00 +14°C° 0 mm 1 mps 758 mmHg 71%
    22:00 +14°C° 0 mm 2 mps 758 mmHg 73%
    23:00 +13°C° 0 mm 2 mps 758 mmHg 74%

    Pasado mañana, 20 Agosto, Lunes

    Tiempo Temperatura Precipitaciones Viento Presión Humedad
    00:00 +13°C° 0 mm 2 mps 758 mmHg 76%
    01:00 +13°C° 0 mm 2 mps 757 mmHg 77%
    02:00 +13°C° 0 mm 2 mps 757 mmHg 79%
    03:00 +12°C° 0 mm 2 mps 757 mmHg 80%
    04:00 +13°C° 0 mm 2 mps 757 mmHg 80%
    05:00 +13°C° 0 mm 2 mps 757 mmHg 80%
    06:00 +14°C° 0 mm 2 mps 757 mmHg 80%
    07:00 +14°C° 0 mm 3 mps 757 mmHg 75%
    08:00 +17°C° 0 mm 3 mps 756 mmHg 71%
    09:00 +19°C° 0 mm 3 mps 756 mmHg 67%
    10:00 +20°C° 0 mm 4 mps 756 mmHg 64%
    11:00 +22°C° 0 mm 4 mps 756 mmHg 61%
    12:00 +23°C° 0 mm 4 mps 755 mmHg 57%
    13:00 +23°C° 0 mm 5 mps 755 mmHg 57%
    14:00 +23°C° 0 mm 5 mps 754 mmHg 57%
    15:00 +25°C° 0 mm 5 mps 754 mmHg 57%
    16:00 +23°C° 0 mm 4 mps 754 mmHg 63%
    17:00 +22°C° 0 mm 4 mps 754 mmHg 68%
    18:00 +21°C° 0 mm 3 mps 753 mmHg 74%
    19:00 +20°C° 0,3 mm 3 mps 753 mmHg 78%
    20:00 +19°C° 0,3 mm 3 mps 753 mmHg 82%
    21:00 +18°C° 0,3 mm 3 mps 753 mmHg 86%
    22:00 +18°C° 0,4 mm 3 mps 753 mmHg 87%
    23:00 +18°C° 0,4 mm 3 mps 753 mmHg 88%

    21 Agosto, Martes

    Tiempo Temperatura Precipitaciones Viento Presión Humedad
    00:00 +17°C° 0,4 mm 3 mps 752 mmHg 89%
    01:00 +17°C° 0,2 mm 3 mps 752 mmHg 91%
    02:00 +17°C° 0,2 mm 3 mps 752 mmHg 92%
    03:00 +16°C° 0,2 mm 3 mps 752 mmHg 94%
    04:00 +17°C° 0,1 mm 3 mps 752 mmHg 93%
    05:00 +17°C° 0,1 mm 3 mps 752 mmHg 93%
    06:00 +17°C° 0,1 mm 3 mps 752 mmHg 93%
    07:00 +19°C° 0,1 mm 3 mps 752 mmHg 88%
    08:00 +20°C° 0,1 mm 3 mps 752 mmHg 83%
    09:00 +22°C° 0,1 mm 3 mps 752 mmHg 79%
    10:00 +22°C° 0,4 mm 4 mps 752 mmHg 75%
    11:00 +23°C° 0,4 mm 4 mps 752 mmHg 70%
    12:00 +25°C° 0,4 mm 5 mps 752 mmHg 66%
    13:00 +26°C° 0,1 mm 5 mps 752 mmHg 64%
    14:00 +26°C° 0,1 mm 5 mps 752 mmHg 62%
    15:00 +26°C° 0,1 mm 5 mps 751 mmHg 60%
    16:00 +25°C° 0,1 mm 4 mps 752 mmHg 65%
    17:00 +24°C° 0,1 mm 3 mps 752 mmHg 69%
    18:00 +23°C° 0,1 mm 2 mps 752 mmHg 74%
    19:00 +21°C° 0,1 mm 2 mps 752 mmHg 78%
    20:00 +19°C° 0,1 mm 2 mps 752 mmHg 82%
    21:00 +19°C° 0,1 mm 1 mps 752 mmHg 86%
    22:00 +19°C° 0 mm 1 mps 751 mmHg 87%
    23:00 +18°C° 0 mm 1 mps 751 mmHg 89%

    22 Agosto, Miércoles

    Tiempo Temperatura Precipitaciones Viento Presión Humedad
    00:00 +18°C° 0 mm 1 mps 751 mmHg 90%
    01:00 +17°C° 0 mm 2 mps 751 mmHg 92%
    02:00 +17°C° 0 mm 2 mps 750 mmHg 93%
    03:00 +16°C° 0 mm 2 mps 750 mmHg 94%
    04:00 +17°C° 0 mm 3 mps 750 mmHg 93%
    05:00 +17°C° 0 mm 4 mps 749 mmHg 92%
    06:00 +18°C° 0 mm 4 mps 749 mmHg 92%
    07:00 +19°C° 0 mm 5 mps 748 mmHg 85%
    08:00 +21°C° 0 mm 6 mps 748 mmHg 79%
    09:00 +22°C° 0 mm 7 mps 748 mmHg 73%
    10:00 +23°C° 0,1 mm 7 mps 747 mmHg 72%
    11:00 +23°C° 0,1 mm 8 mps 747 mmHg 71%
    12:00 +23°C° 0,1 mm 8 mps 746 mmHg 70%
    13:00 +23°C° 0,7 mm 8 mps 746 mmHg 74%
    14:00 +22°C° 0,7 mm 8 mps 746 mmHg 78%
    15:00 +21°C° 0,7 mm 7 mps 746 mmHg 82%
    16:00 +20°C° 0,2 mm 7 mps 746 mmHg 79%
    17:00 +20°C° 0,2 mm 6 mps 746 mmHg 76%
    18:00 +19°C° 0,2 mm 6 mps 747 mmHg 73%
    19:00 +17°C° 0 mm 6 mps 747 mmHg 75%
    20:00 +15°C° 0 mm 5 mps 748 mmHg 76%
    21:00 +13°C° 0 mm 5 mps 748 mmHg 77%
    22:00 +13°C° 0 mm 5 mps 748 mmHg 78%
    23:00 +13°C° 0 mm 5 mps 749 mmHg 79%

    23 Agosto, Jueves

    Tiempo Temperatura Precipitaciones Viento Presión Humedad
    00:00 +13°C° 0 mm 6 mps 749 mmHg 80%
    01:00 +12°C° 0 mm 5 mps 749 mmHg 81%
    02:00 +12°C° 0 mm 5 mps 749 mmHg 83%
    03:00 +12°C° 0 mm 5 mps 750 mmHg 85%
    04:00 +12°C° 0 mm 5 mps 750 mmHg 86%
    05:00 +12°C° 0 mm 5 mps 750 mmHg 86%
    06:00 +12°C° 0 mm 5 mps 750 mmHg 87%
    07:00 +13°C° 0 mm 6 mps 750 mmHg 81%
    08:00 +14°C° 0 mm 6 mps 751 mmHg 75%
    09:00 +16°C° 0 mm 6 mps 751 mmHg 69%
    10:00 +17°C° 0 mm 6 mps 751 mmHg 65%
    11:00 +19°C° 0 mm 6 mps 751 mmHg 60%
    12:00 +20°C° 0 mm 6 mps 751 mmHg 56%
    13:00 +21°C° 0 mm 6 mps 751 mmHg 54%
    14:00 +21°C° 0 mm 6 mps 750 mmHg 53%
    15:00 +21°C° 0 mm 5 mps 750 mmHg 52%
    16:00 +20°C° 0 mm 5 mps 750 mmHg 58%
    17:00 +19°C° 0 mm 4 mps 750 mmHg 63%
    18:00 +19°C° 0 mm 3 mps 750 mmHg 69%
    19:00 +18°C° 0,1 mm 3 mps 750 mmHg 71%
    20:00 +17°C° 0,1 mm 4 mps 750 mmHg 73%
    21:00 +17°C° 0,1 mm 4 mps 749 mmHg 76%
    22:00 +17°C° 0,1 mm 4 mps 749 mmHg 77%
    23:00 +17°C° 0,1 mm 4 mps 749 mmHg 79%
    Mostrar más